www.pogodaiklimat.ru

Погода и климат >> Архив погоды >> Швеция >> Паркаломполо


ПОГОДА в Паркаломполо

  • Прогноз погоды в Паркаломполо
  • Монитор погоды в Паркаломполо

АРХИВ ПОГОДЫ в Паркаломполо

Время (UTC), дата Ветер
(напр.,м/с)
 
Видим.   Явления Облачность Т
(С)
Тd
(С)
f
(%)
Тe
(С)
Тes
(С)
Комфортность P
(гПа)
Po
(гПа)
Тmin
(С)
Tmax
(С)
R
(мм)
R24
(мм)
S
(см)
01 16.09 С 2
{3}
50 км ясно -0.6 -3.6 80 -4 -4 997.6 959.5
02 16.09 С 2
{4}
50 км ясно -0.9 -3.6 82 -5 -5 997.8 959.7
03 16.09 С 2
{4}
50 км ясно -1.3 -3.5 85 -5 -5 997.8 959.6
04 16.09 С 2
{3}
40 км ясно -1.1 -3.3 85 -5 -5 997.8 959.6
05 16.09 СЗ 2
{3}
40 км ясно -0.1 -2.3 85 -4 -4 997.7 959.6
06 16.09 С 3
{5}
40 км ясно +1.8 -1.2 80 -2 -2 997.5 959.5 -1.5
07 16.09 С 4
{7}
50 км 10/1 480 м
[]
+3.1 -0.5 77 -1 -1 997.2 959.5
08 16.09 С 4
{8}
29 км слаб. дождь ?/? +2.8 +0.4 84 -2 -2 997.4 959.6
09 16.09 С 3
{9}
35 км слаб. дождь 10/10 270 м
[]
+3.4 +1.1 85 -1 -0 997.6 959.9 0.1
11 16.09 С 3
{6}
19 км слаб. дождь 10/10 240 м
[]
+4.4 +2.1 85 +1 +1 997.9 960.3 0.1
12 16.09 С 3
{6}
19 км слаб. дождь 10/10 240 м
[]
+4.8 +2.8 87 +1 +1 998.0 960.5 0.2
13 16.09 С 2
{5}
35 км слаб. дождь 10/10 240 м
[]
+5.5 +3.6 88 +3 +3 998.0 960.6 0.2
14 16.09
{5}
45 км слаб. дождь 10/10 240 м
[]
+5.9 +3.8 86 998.0 960.7 0.3
15 16.09 С 3
{5}
50 км в посл. час дождь {метель} 10/10 180 м
[]
+6.1 +4.0 86 +3 +3 998.1 960.7
16 16.09 С 2
{5}
50 км в посл. час дождь {ливн. осадки} ?/? +5.9 +3.7 86 +3 +3 998.3 960.9 0.1
17 16.09 С 2
{4}
50 км {ливн. осадки, дождь} 9/1 1110 м
[]
+4.9 +2.9 87 +2 +2 998.6 961.1
18 16.09 С 2
{5}
50 км {ливн. осадки, дождь} 10/10 1260 м
[]
+4.7 +2.4 85 +2 +2 998.9 961.3
19 16.09 С 3
{5}
50 км 10/5 1110 м
[]
+4.4 +1.9 84 +1 +1 999.2 961.5
20 16.09 С 2
{5}
50 км 10/8 1140 м
[]
+3.8 +1.4 84 +1 +1 999.4 961.6
21 16.09 С 3
{5}
50 км 10/10 900 м
[]
+3.9 +1.6 85 0 0 999.6 961.8
22 16.09 С 2
{4}
50 км 10/4 540 м
[]
+3.2 +1.0 85 0 0 999.9 962.0
23 16.09 С 2
{5}
50 км 10/4 360 м
[]
+3.0 +0.9 86 -0 -0 1000.1 962.2
00 17.09
{5}
50 км 10/10 300 м
[]
+3.2 +0.9 85 1000.1 962.3
01 17.09 С 3
{5}
50 км 10/10 210 м
[]
+3.2 +1.2 87 -1 -1 1000.1 962.3
02 17.09
{6}
35 км 10/8 60 м
[]
+3.0 +1.3 89 1000.2 962.3
03 17.09 С 4
{6}
50 км 10/10 120 м
[]
+3.1 +1.4 89 -2 -2 1000.3 962.4
04 17.09
{6}
3900 м дымка ?/? +3.3 +1.8 90 1000.4 962.5
05 17.09 С 3
{6}
6000 м слаб. дождь ?/? +3.6 +2.1 90 -0 -0 1000.5 962.7
06 17.09 С 3
{5}
3300 м в посл. час дождь {ливн. осадки} ?/? +4.0 +2.6 91 0 0 1000.8 963.1 +3.0 +4.7 0.3
07 17.09 С 3
{6}
22 км слаб. ливневой дождь ?/? +4.6 +3.1 90 +1 +1 1001.3 963.6
08 17.09 СВ 3
{7}
19 км дождь {ливн. осадки} 10/8 210 м
[]
+4.5 +2.7 88 +1 +1 1001.9 964.1 0.4
09 17.09 СВ 4
{7}
23 км слаб. ливневой дождь 10/10 60 м
[]
+4.8 +2.6 86 +1 +2 1002.5 964.8 0.2
10 17.09 СВ 4
{6}
40 км в посл. час дождь {ливн. осадки} 10/8 270 м
[]
+4.8 +2.5 85 +1 +1 1003.0 965.3 0.1
11 17.09 СВ 4
{7}
11 км слаб. дождь 10/1 30 м
[]
+4.5 +1.8 83 0 +1 1003.5 965.7 0.0
12 17.09 СВ 3
{6}
50 км в посл. час дождь {ливн. осадки} 10/10 360 м
[]
+5.3 +2.2 80 +2 +2 1003.8 966.1 0.1
13 17.09 СВ 3
{5}
50 км 10/3 450 м
[]
+5.3 +1.8 78 +2 +3 1004.1 966.4
14 17.09 С 3
{6}
45 км 10/5 1050 м
[]
+5.5 +1.1 73 +2 +3 1004.3 966.6
15 17.09 С 2
{8}
45 км в посл. час дождь {ливн. осадки} 10/10 90 м
[]
+4.9 +0.8 75 +2 +3 1004.7 966.9 0.0
16 17.09 С 2
{4}
40 км {ливн. осадки, дождь} 10/10
[]
+4.9 +1.2 77 +2 +2 1005.2 967.4
17 17.09 С 1
{4}
45 км {ливн. осадки, дождь} 10/9
[]
+3.8 +0.3 78 +3 +3 1005.4 967.4
18 17.09 С 2
{2}
27 км {ливн. осадки, дождь} 10/0
[]
+3.1 +0.1 81 0 0 1005.8 967.7 +3.1 +5.8
19 17.09 С 1
{3}
45 км 10/3 1300 м
[]
+2.8 -0.3 80 +1 +1 1006.4 968.2
20 17.09 С 1
{2}
50 км 10/10 2000 м
[]
+2.7 -0.9 77 +1 +1 1006.8 968.7
21 17.09 СВ 1
{3}
50 км 10/0
[]
+2.1 -1.4 78 +1 +1 1007.2 969.0
22 17.09
{3}
50 км 9/0
[]
+1.0 -1.8 82 1007.6 969.2
23 17.09 С 2
{2}
50 км ясно -0.4 -2.6 85 -4 -4 1007.9 969.4
00 18.09 С 1
{2}
40 км 8/8 1410 м
[]
-1.7 -3.8 86 -4 -4 1008.2 969.6
01 18.09 С 1
{2}
40 км 4/4
[]
-2.3 -4.3 86 -5 -5 1008.3 969.7
02 18.09 С 1
{2}
45 км 10/8 1440 м
[]
-2.7 -4.9 85 -5 -5 1008.5 969.8
03 18.09 штиль 0
{1}
45 км 10/0 2000 м
[]
-2.6 -5.2 82 -4 -4 1008.7 970.0
04 18.09 С 1
{1}
50 км 10/10 1500 м
[]
-2.4 -4.6 85 -5 -5 1008.8 970.1
05 18.09 С 1
{2}
40 км 10/5 2000 м
[]
-0.6 -3.1 83 -3 -3 1008.8 970.2
06 18.09 штиль 0
{2}
50 км 10/0 2000 м
[]
+1.0 -2.2 79 0 0 1009.0 970.6 -3.4
07 18.09 штиль 0
{1}
50 км 10/4 1500 м
[]
+2.4 -1.4 76 +2 +2 1009.3 971.0
08 18.09 штиль 0
{1}
30 км 10/1
[]
+3.0 -0.5 78 +2 +3 1009.6 971.4
09 18.09 С 1
{2}
40 км 1/0
[]
+3.8 -0.8 72 +3 +6 1009.9 971.7
10 18.09 С 1
{2}
35 км в посл. час дождь {ливн. осадки} 5/1 30 м
[]
+4.0 -0.4 73 +3 +5 1010.1 972.0 0.0
11 18.09
{2}
30 км слаб. ливневой дождь ?/? +4.0 -0.3 74 1010.2 972.1 0.0
12 18.09 СЗ 2
{4}
25 км слаб. ливневой дождь 10/10 480 м
[]
+3.7 +0.2 78 +1 +1 1010.6 972.5 0.0
13 18.09 З 1
{5}
50 км в посл. час дождь {ливн. осадки, метель} 10/1 500 м
[]
+3.5 -0.4 76 +2 +3 1010.6 972.4 0.2
14 18.09 С 1
{4}
17 км слаб. дождь ?/? +3.0 -0.2 79 +2 +2 1010.8 972.5
15 18.09 СЗ 1
{2}
45 км в посл. час дождь {ливн. осадки} 5/0
[]
+3.3 +0.2 80 +2 +2 1010.9 972.6 0.0
16 18.09 штиль 0
{1}
50 км {ливн. осадки, дождь} 10/3 750 м
[]
+3.2 +0.3 81 +2 +2 1011.1 972.8
17 18.09 СЗ 1
{2}
50 км {ливн. осадки, дождь} 10/9 2000 м
[]
+2.7 -0.4 80 +1 +1 1011.4 973.0
18 18.09 СЗ 1
{2}
50 км {ливн. осадки, дождь} 10/0
[]
+1.7 -1.2 81 0 0 1011.7 973.2 +4.8
19 18.09 СЗ 1
{2}
50 км 10/4
[]
+0.8 -1.4 85 -1 -1 1011.9 973.4
20 18.09 СЗ 2
{3}
50 км 10/10
[]
+0.7 -1.5 85 -3 -3 1012.0 973.5
21 18.09 СЗ 1
{3}
45 км 1/0
[]
-1.1 -3.2 86 -3 -3 1012.4 973.7
22 18.09 СЗ 1
{3}
50 км ясно -1.1 -3.6 83 -3 -3 1012.5 973.8
23 18.09 СЗ 2
{3}
50 км ясно -1.4 -3.7 84 -5 -5 1012.7 973.9
00 19.09 СЗ 1
{3}
50 км 5/0
[]
-2.1 -4.4 84 -4 -4 1012.8 974.0
01 19.09 З 1
{3}
50 км 10/10
[]
-1.4 -3.6 85 -4 -4 1012.8 974.0
02 19.09 СЗ 2
{4}
50 км 10/6 1500 м
[]
-0.8 -3.4 83 -5 -5 1012.7 974.0
03 19.09 СЗ 2
{4}
50 км 10/10 1500 м
[]
-1.0 -3.6 82 -5 -5 1012.7 974.0
04 19.09 СЗ 2
{4}
50 км 10/9 1320 м
[]
-1.0 -3.8 81 -5 -5 1012.9 974.2
05 19.09 З 1
{4}
50 км 10/1
[]
-0.9 -4.3 78 -3 -3 1012.9 974.1
06 19.09 З 1
{3}
50 км 5/0 2000 м
[]
-0.2 -3.6 78 -2 -2 1012.8 974.1 -2.7
07 19.09 З 2
{4}
50 км 8/3
[]
+2.1 -2.6 71 -1 -0 1012.4 974.0
08 19.09 З 3
{6}
40 км 10/5
[]
+3.0 -2.4 68 -1 -0 1012.4 974.0
09 19.09 З 3
{7}
50 км 3/0
[]
+4.0 -2.4 63 +1 +3 1012.1 973.9
10 19.09 СЗ 4
{10}
40 км 3/3 1050 м
[]
+5.6 -3.0 54 +2 +4 1011.9 973.9
11 19.09 З 4
{10}
50 км 10/5 1140 м
[]
+5.8 -3.1 53 +2 +3 1012.1 974.2
12 19.09 З 4
{10}
45 км 9/9 1080 м
[]
+6.2 -3.1 51 +3 +4 1012.0 974.1
13 19.09 СЗ 3
{13}
50 км в посл. час снег {ливн. осадки, дождь} 10/1 1300 м
[]
+4.2 -3.0 59 +1 +2 1012.6 974.4 0.1
14 19.09 СЗ 3
{9}
45 км {ливн. осадки, дождь} 6/6
[]
+5.2 -4.9 48 +2 +3 1012.5 974.4
15 19.09 СЗ 4
{8}
45 км {ливн. осадки, дождь} 6/6 1320 м
[]
+5.6 -4.6 48 +2 +3 1012.2 974.3
16 19.09 СЗ 3
{8}
50 км {ливн. осадки, дождь} 10/1 1500 м
[]
+4.2 -4.7 52 +1 +1 1012.4 974.2
17 19.09 З 2
{7}
50 км {ливн. осадки, дождь} ясно +2.8 -4.1 60 0 0 1012.5 974.2
18 19.09 З 1
{6}
50 км {ливн. осадки, дождь} ясно +1.3 -4.4 66 -0 -0 1012.5 974.0 -0.2 +6.6
19 19.09 З 1
{4}
50 км ясно +0.8 -3.9 71 -1 -1 1012.5 973.9
20 19.09 З 1
{4}
50 км ясно +0.7 -4.0 71 -1 -1 1012.1 973.6
21 19.09 З 1
{3}
50 км 3/0
[]
-0.5 -4.1 77 -2 -2 1012.2 973.5
22 19.09 З 2
{4}
50 км 10/9
[]
+0.2 -3.3 77 -3 -3 1012.2 973.6
23 19.09 З 2
{5}
50 км 10/6
[]
+0.3 -3.5 76 -3 -3 1012.1 973.5
00 20.09 З 1
{4}
50 км 10/0
[]
0.0 -3.8 76 -2 -2 1011.8 973.2
01 20.09 З 2
{4}
50 км 10/10
[]
-0.4 -4.0 77 -4 -4 1011.6 972.9
02 20.09 штиль 0
{4}
50 км 10/4
[]
-1.4 -5.3 75 -2 -2 1011.6 972.9
03 20.09 З 2
{4}
50 км 9/0
[]
-0.4 -3.7 78 -4 -4 1011.5 972.8
04 20.09 З 1
{4}
50 км 9/9
[]
-0.4 -3.7 78 -2 -2 1011.5 972.9
05 20.09 З 2
{3}
50 км 6/6
[]
-0.3 -3.4 80 -4 -4 1011.3 972.7
06 20.09 ЮЗ 1
{4}
50 км 10/0
[]
+0.6 -3.0 77 -1 -1 1011.0 972.5 -1.8 +1.6
07 20.09 ЮЗ 1
{2}
45 км 10/9
[]
+1.9 -2.6 72 0 +1 1011.0 972.6
08 20.09 З 2
{5}
50 км 10/10
[]
+3.0 -1.9 70 0 0 1011.0 972.8
09 20.09 З 2
{6}
50 км 10/0
[]
+3.8 -2.1 65 +1 +1 1010.8 972.7
10 20.09 СЗ 3
{6}
50 км 10/10
[]
+5.0 -2.4 59 +2 +2 1010.6 972.6
11 20.09 СЗ 3
{6}
50 км 10/10
[]
+5.9 -2.5 55 +3 +3 1010.3 972.4
12 20.09 СЗ 3
{6}
50 км 10/0
[]
+6.4 -3.5 49 +4 +4 1010.1 972.3
13 20.09 СЗ 2
{6}
50 км 10/1
[]
+7.0 -3.6 47 +5 +6 1009.7 972.0
14 20.09 СЗ 2
{6}
50 км ясно +6.7 -3.9 47 +5 +6 1009.3 971.6
15 20.09 штиль 0
{5}
50 км ясно +5.5 -4.0 50 +5 +6 1009.0 971.2
16 20.09 СЗ 1
{2}
30 км ясно +3.9 -3.7 58 +3 +3 1009.3 971.2
17 20.09 штиль 0
{2}
50 км 5/5
[]
+0.4 -4.9 68 -0 -0 1009.7 971.2
18 20.09 СЗ 1
{2}
13 км 10/0
[]
-1.1 -5.2 74 -3 -3 1009.8 971.2 -1.1 +7.1
19 20.09 СЗ 1
{2}
50 км 10/10
[]
+0.2 -4.2 72 -2 -2 1009.5 971.0
20 20.09 штиль 0
{1}
50 км 8/8
[]
-1.4 -4.7 78 -2 -2 1009.5 970.9
21 20.09 С 1
{2}
50 км 9/9
[]
-1.7 -4.9 79 -4 -4 1009.3 970.7
22 20.09 СЗ 1
{2}
50 км 9/5
[]
-0.6 -4.0 78 -3 -3 1009.1 970.6
23 20.09 штиль 0
{1}
50 км 8/6
[]
-2.3 -5.3 80 -3 -3 1009.1 970.4
00 21.09
{1}
40 км 10/0
[]
-2.7 -5.4 82 1009.0 970.3
01 21.09 СЗ 1
{1}
50 км 10/10
[]
-3.4 -6.2 81 -6 -6 1008.9 970.2
02 21.09 С 1
{1}
50 км 10/10
[]
-4.0 -6.6 82 -6 -6 1009.1 970.3
03 21.09 штиль 0
{1}
50 км 10/0
[]
-4.5 -7.1 82 -5 -5 1008.8 970.0
04 21.09 штиль 0
{2}
50 км 9/6
[]
-5.3 -7.8 83 -6 -6 1008.7 969.8
05 21.09 штиль 0
{1}
50 км 5/3 2000 м
[]
-5.9 -8.8 80 -7 -7 1009.0 970.0
06 21.09 штиль 0
{2}
23 км 10/0
[]
-2.3 -5.2 80 -3 -3 1008.6 969.9 -6.0 +0.2
07 21.09 З 2
{3}
50 км 5/0
[]
-0.1 -3.2 80 -4 -3 1008.6 970.1
08 21.09 СЗ 3
{5}
45 км 10/3
[]
+2.6 -2.6 69 -1 -1 1008.5 970.2
09 21.09 СЗ 2
{6}
45 км ясно +5.1 -2.2 59 +3 +5 1008.2 970.3
10 21.09 СЗ 4
{7}
45 км ясно +6.1 -2.3 55 +3 +5 1008.5 970.7
11 21.09 СЗ 2
{7}
50 км 10/8 1080 м
[]
+5.9 -2.0 57 +4 +4 1008.8 971.0
12 21.09 СЗ 1
{7}
40 км слаб. ливневой дождь ?/? +3.6 +0.1 78 +2 +2 1009.6 971.4 0.0
13 21.09 СЗ 1
{5}
50 км в посл. час дождь {ливн. осадки, метель} 10/5 1500 м
[]
+3.0 -0.5 78 +2 +2 1009.9 971.6 0.4
14 21.09 СЗ 3
{7}
45 км {ливн. осадки, метель} 1/0
[]
+5.4 -1.8 60 +2 +3 1009.4 971.6
15 21.09 С 2
{12}
50 км в посл. час дождь {ливн. осадки} 4/4 1350 м
[]
+4.3 -1.0 68 +2 +2 1010.1 972.1 0.1
16 21.09 СЗ 3
{9}
50 км {ливн. осадки, дождь} 4/0
[]
+3.2 -1.5 71 -1 -1 1011.0 972.8
17 21.09 СЗ 2
{6}
50 км {ливн. осадки, дождь} ясно +2.0 -3.6 66 -1 -1 1012.0 973.5
18 21.09 СЗ 2
{4}
50 км {ливн. осадки, дождь} ясно +1.1 -3.6 71 -2 -2 1012.6 974.1 -2.4 +6.9
19 21.09 СЗ 2
{4}
50 км ясно +0.9 -4.2 69 -2 -2 1013.4 974.8
20 21.09 З 2
{4}
50 км ясно -0.2 -4.1 75 -4 -4 1014.0 975.3
21 21.09 СЗ 1
{3}
50 км 6/0
[]
-1.4 -4.8 78 -3 -3 1014.7 975.9
22 21.09 С 3
{6}
50 км 9/8 1260 м
[]
+0.9 -3.2 74 -3 -3 1015.0 976.3
23 21.09 С 2
{7}
50 км ясно +0.1 -3.6 76 -3 -3 1015.9 977.2
00 22.09 С 2
{5}
50 км ясно -0.5 -4.1 77 -4 -4 1016.8 978.0
01 22.09 СЗ 1
{4}
50 км ясно -2.0 -5.4 78 -4 -4 1017.5 978.6
02 22.09 СЗ 2
{4}
50 км ясно -1.8 -4.7 81 -6 -6 1018.0 979.1
03 22.09 СЗ 2
{5}
50 км ясно -1.7 -4.9 79 -5 -5 1018.5 979.5
04 22.09 СЗ 1
{4}
50 км ясно -3.3 -6.5 78 -5 -5 1019.3 980.2
05 22.09 З 1
{3}
50 км ясно -2.3 -5.2 80 -4 -4 1019.8 980.8
06 22.09 СЗ 1
{2}
50 км ясно -0.4 -4.5 74 -2 -2 1020.2 981.3 -4.5 +1.4
07 22.09 СЗ 1
{4}
45 км ясно +2.7 -3.2 65 +2 +3 1020.4 981.7
08 22.09 СЗ 3
{6}
45 км 1/1 2000 м
[]
+4.1 -2.8 61 +1 +2 1020.6 982.1
09 22.09 С 4
{7}
50 км 5/5 1500 м
[]
+4.1 -3.1 59 0 +1 1021.0 982.5
10 22.09 С 4
{7}
45 км 4/4 1080 м
[]
+5.6 -2.7 55 +2 +3 1021.1 982.8
11 22.09 СЗ 4
{8}
50 км 10/4 1050 м
[]
+5.4 -3.2 54 +2 +2 1021.2 982.9
12 22.09 С 4
{8}
50 км 10/10 1170 м
[]
+5.7 -3.2 53 +2 +3 1021.3 983.0
13 22.09 С 5
{9}
50 км в посл. час дождь {ливн. осадки, метель} 10/10 1080 м
[]
+5.8 -2.0 57 +2 +2 1021.6 983.3 0.0
14 22.09 С 2
{10}
50 км в посл. час дождь {ливн. осадки, метель} ?/? +2.9 -0.1 81 -0 -0 1022.5 983.7 0.2
15 22.09 С 2
{3}
50 км {ливн. осадки, метель} 1/1 1380 м
[]
+3.1 -0.9 75 0 +1 1022.6 983.9
16 22.09 С 2
{4}
50 км {ливн. осадки, метель} 1/0
[]
+2.8 -2.8 67 0 0 1022.8 984.0
17 22.09 СЗ 1
{3}
35 км {ливн. осадки, метель} ясно -0.7 -4.7 74 -3 -3 1023.4 984.3
18 22.09 З 1
{3}
50 км {ливн. осадки, метель} ясно -0.7 -4.5 75 -3 -3 1023.6 984.5 -1.5 +6.7
19 22.09 СЗ 1
{3}
40 км 4/4 1300 м
[]
-0.9 -4.4 77 -3 -3 1023.8 984.7
20 22.09 З 1
{3}
30 км 1/1 1110 м
[]
-1.6 -4.8 79 -4 -4 1024.1 984.9
21 22.09 штиль 0
{3}
35 км 3/3 1050 м
[]
-2.8 -5.3 83 -4 -4 1024.5 985.2
22 22.09 С 1
{1}
50 км 10/10 1000 м
[]
-1.9 -5.0 79 -4 -4 1024.6 985.3
23 22.09 штиль 0
{2}
50 км 8/5 1080 м
[]
-2.4 -5.2 81 -3 -3 1024.5 985.2

 

Местоположение метеостанции Паркаломполо (Швеция): широта 67.73 долгота 22.83 высота над уровнем моря 313 м.

В архиве по умолчанию представлена погода в Паркаломполо за последнюю неделю. Архивные данные за месяц целиком и за предыдущие месяцы, начиная с января 2011 года, Вы можете получить, выбрав интересующий диапазон дат из раскрывающегося списка и нажав кнопку "Ввод!".


*Определитесь, кто Вы:
робот инопланетянин человек

Внимание! Время в таблицах - всемирное. Для получения местного времени необходимо прибавить поправку, которая равна 1 ч.

Смотрите также архив погоды в соседних городах и на ближайших метеорологических станциях:

Погода в Муонио Аламуонио (Финляндия) (46 км)
Погода в Саиттарове (Швеция) (51 км)
Погода в Недре Сопперо (Швеция) (57 км)
Погода в Муонио Саммалтунтури (Финляндия) (60 км)
Погода в Муонио Лаукукеро (Финляндия) (62 км)
Погода в Паджала аэропорту (Швеция) (63 км)
Погода в Киттиля Ломполонвуома (Финляндия) (65 км)
Погода в Киттила Кенттарова (Финляндия) (66 км)
Погода в Киттила Маторова (Финляндия) (66 км)
Погода в Каресуандо (Швеция) (82 км)

Пояснения к столбцам:

Ветер - указаны скорость ветра в м/с - средняя за 10 мин, порывы в срок и между сроками (в фигурных скобках) и направление, откуда дует ветер: С - северный, СВ - северо-восточный, В - восточный, ЮВ - юго-восточный, Ю - южный, ЮЗ - юго-западный, З - западный, СЗ - северо-западный.
Видимость - горизонтальная дальность видимости в метрах или километрах. При видимости от 1 до 10 км при отсутствии осадков обычно наблюдается дымка, при ухудшении видимости до 1 км и менее - туман. В сухую погоду видимость может ухудшаться дымом, пылью или мглою.
Явления - указаны атмосферные явления, наблюдавшиеся в срок или в последний час перед сроком; фигурными скобками обозначены явления, наблюдавшиеся между сроками (за 1-3 часа до срока); квадратными скобками обозначены град или гололедные отложения с указанием их диаметра в мм.
Облачность - указаны через наклонную черту общая и нижняя облачность в баллах и высота нижней границы облаков в метрах; квадратными скобками обозначены формы облаков: Ci - перистые, Cs - перисто-слоистые, Cc - перисто-кучевые, Ac - высококучевые, As - высокослоистые, Sc - слоисто-кучевые, Ns - слоисто-дождевые, Cu - кучевые, Cb - кучево-дождевые. Подробнее классификацию облаков см. в Атласе облаков (PDF).
T - Температура воздуха - температура, измеренная на высоте 2 м над землей.
Td - Температура точки росы - температура, при понижении до которой содержащийся в воздухе водяной пар достигнет насыщения.
f - Относительная влажность воздуха - влажноcть воздуха, измеренная на высоте 2 м над землей.
Te - Эффективная температура - температура, которую ощущает одетый по сезону человек в тени. Характеристика душности погоды. При расчете учитывается влияние влажности воздуха и скорости ветра на теплоощущения человека.
Tes - Эффективная температура на солнце - температура, которую ощущает человек, с поправкой на солнечный нагрев. Характеристика знойности погоды. Зависит от высоты солнца над горизонтом, облачности и скорости ветра. Ночью, в пасмурную погоду, а также при ветре 12 м/с и более поправка равна нулю.
P - Атмосферное давление - приведенное к уровню моря атмосферное давление.
Po - Атмосферное давление - измеренное на уровне метеостанции атмосферное давление.
Tmin - Минимальная температура - минимум температуры воздуха на высоте 2 м над землей.
Tmax - Максимальная температура - максимум температуры воздуха на высоте 2 м над землей.
R - Количество осадков - Количество выпавших осадков за период времени, мм. При наведении курсора мыши на число - период времени, за который выпало указанное количество осадков.
R24 - Количество осадков - Количество выпавших осадков за 24 часа, мм.
S - Снежный покров - Высота снежного покрова, см. При наведении курсора мыши на число - состояние снежного покрова и степень покрытия местности в баллах.